Location: Beuren
(47.7995°N, 8.8747°E)
Time: 08:21:29
(UTC+00:00)

Daily predictions for brighter satellites

Satellite Brightness Start Highest point End
(mag) Time Altitude Azimuth Time Altitude Azimuth Time Altitude Azimuth
Resurs 01 Rocket 3.3 18:31:56 10° ESE 18:34:53 18° ENE 18:37:51 10° NNE
ERBS 4.4 18:32:54 10° NW 18:35:24 19° N 18:37:54 10° ENE
Cosmos 1825 Rocket 3.8 18:31:22 10° N 18:35:39 49° ENE 18:39:52 10° SSE
USA 186 2.0 18:35:40 10° SSE 18:38:53 50° ENE 18:41:59 10° N
Cosmos 2315 Rocket 4.5 18:34:53 10° SSW 18:41:12 70° W 18:47:37 10° N
Cosmos 921 Rocket 4.3 18:38:04 10° N 18:41:27 23° ENE 18:44:49 10° ESE
GEOS 3 Rocket 4.1 18:37:35 10° SSE 18:42:40 62° SW 18:47:52 10° NW
Aureole 3 4.2 18:38:31 10° S 18:43:24 88° W 18:49:42 10° N
ARGOS Delta rocket 4.3 18:38:24 10° S 18:43:43 85° WSW 18:49:15 10° NNW
Cosmos 407 Rocket 4.1 18:39:58 10° SSE 18:44:29 32° ESE 18:49:00 10° NE
STARLINK-1233 4.0 18:41:41 10° WNW 18:44:38 37° NNE 18:47:37 10° E
STARLINK-1234 3.7 18:41:50 10° WNW 18:44:47 41° NNE 18:47:43 10° E
STARLINK-1212 3.9 18:42:09 10° WNW 18:45:06 37° NNE 18:48:03 10° E
STARLINK-1105 3.9 18:42:34 10° WNW 18:45:33 37° NNE 18:48:31 10° E
STARLINK-1209 3.6 18:43:01 10° WNW 18:45:57 42° NNE 18:48:51 10° E
STARLINK-1206 3.9 18:43:04 10° WNW 18:46:01 37° NNE 18:48:57 10° E
STARLINK-1247 3.9 18:43:31 10° WNW 18:46:28 37° NNE 18:49:25 10° E
STARLINK-1227 3.9 18:43:55 10° WNW 18:46:54 38° NNE 18:49:52 10° E
STARLINK-1218 3.9 18:44:25 10° WNW 18:47:23 38° NNE 18:50:20 10° E
STARLINK-1226 3.9 18:44:51 10° WNW 18:47:49 38° NNE 18:50:47 10° E
Cosmos 2228 3.3 18:44:01 10° SSE 18:48:05 44° E 18:52:14 10° NNE
STARLINK-1254 3.9 18:45:17 10° WNW 18:48:16 38° NNE 18:51:15 10° E
IRIDIUM 106 4.3 18:43:27 10° N 18:48:42 78° E 18:53:54 10° S
STARLINK-1215 3.9 18:45:46 10° WNW 18:48:44 38° NNE 18:51:40 10° E
STARLINK-1231 3.9 18:46:13 10° WNW 18:49:11 38° NNE 18:52:06 10° E
Cosmos 1758 Rocket 3.5 18:45:06 10° N 18:49:28 81° E 18:53:46 10° SSE
STARLINK-1232 3.9 18:47:08 10° WNW 18:50:06 38° NNE 18:52:59 10° E
SPOT 3 Rocket 4.0 18:45:20 10° SE 18:50:15 44° ENE 18:55:12 10° N
STARLINK-1217 3.9 18:47:34 10° WNW 18:50:32 38° NNE 18:53:24 11° E
STARLINK-1208 3.9 18:47:59 10° WNW 18:50:58 39° NNE 18:53:51 11° E
Cosmos 1461 3.6 18:47:05 10° NNW 18:51:27 46° NE 18:55:35 12° ESE
STARLINK-1229 3.8 18:48:28 10° WNW 18:51:27 39° NNE 18:54:16 11° E
Cosmos 1603 3.8 18:45:54 10° SSW 18:51:32 83° WNW 18:57:11 10° NNE
STARLINK-1271 3.8 18:48:55 10° WNW 18:51:54 39° NNE 18:54:42 11° E
STARLINK-1270 3.8 18:49:23 10° WNW 18:52:22 39° NNE 18:55:08 11° E
STARLINK-1154 3.8 18:49:49 10° WNW 18:52:48 39° NNE 18:55:34 11° E
Aureole 1 Rocket 4.4 18:45:44 10° S 18:52:52 47° ESE 18:58:34 10° NE
STARLINK-1197 3.8 18:50:44 10° WNW 18:53:43 39° NNE 18:56:26 12° E
STARLINK-1189 3.8 18:51:11 10° WNW 18:54:10 40° NNE 18:56:52 12° E
STARLINK-1198 3.8 18:51:38 10° WNW 18:54:36 40° NNE 18:57:18 12° E
STARLINK-1188 3.8 18:52:05 10° WNW 18:55:04 40° NNE 18:57:44 12° E
STARLINK-1235 3.6 18:52:43 10° WNW 18:55:47 45° NNE 18:58:23 13° E
STARLINK-1187 3.7 18:53:08 10° WNW 18:56:12 43° NNE 18:58:50 13° E
SJ-6B 2.9 18:52:39 10° SSE 18:56:44 67° ENE 19:00:52 10° N
STARLINK-1199 3.8 18:54:01 10° WNW 18:57:01 41° NNE 18:59:39 13° E
STARLINK-29 4.4 18:54:40 10° S 18:57:05 20° SE 18:58:47 14° E
Cosmos 1953 Rocket 3.7 18:52:56 10° N 18:57:22 57° ENE 19:01:47 10° SSE
STARLINK-1191 3.8 18:54:29 10° WNW 18:57:29 41° NNE 19:00:06 13° E
STARLINK-1210 3.8 18:54:55 10° WNW 18:57:56 41° NNE 19:00:31 13° E
STARLINK-1221 3.7 18:55:22 10° WNW 18:58:24 41° NNE 19:00:58 13° E
STARLINK-1219 3.7 18:55:49 10° WNW 18:58:50 42° NNE 19:01:23 13° E
Cosmos 2074 Rocket 4.0 18:52:34 10° N 18:58:55 87° E 19:05:13 10° S
STARLINK-60 3.4 18:55:49 10° SW 18:58:56 42° SE 19:02:04 10° ENE
Cosmos 1606 Rocket 3.6 18:54:42 10° S 18:59:04 62° E 19:03:30 10° NNE
STARLINK-1222 3.7 18:56:16 10° WNW 18:59:18 42° NNE 19:01:49 13° E
ATLAS 5 CENTAUR R/B 2.2 18:55:43 10° S 18:59:21 30° ESE 19:03:20 10° ENE
STARLINK-1211 3.7 18:56:43 10° WNW 18:59:45 42° NNE 19:02:15 14° E
STARLINK-1214 3.7 18:57:10 10° WNW 19:00:12 42° NNE 19:02:41 14° E
STARLINK-1245 3.7 18:57:40 10° WNW 19:00:40 42° NNE 19:03:07 14° E
STARLINK-1238 3.7 18:58:04 10° WNW 19:01:06 42° NNE 19:03:34 14° E
ADEOS Rocket 4.4 18:55:06 10° N 19:01:10 45° WNW 19:06:41 10° SW
STARLINK-1205 3.7 18:59:01 10° WNW 19:02:01 43° NNE 19:04:25 14° E
STARLINK-1204 3.7 18:59:28 10° WNW 19:02:28 43° NNE 19:04:50 15° E
Meteor 1-16 Rocket 4.1 18:58:12 10° S 19:03:36 80° E 19:09:13 10° NNE
Cosmos 1818 3.6 18:58:52 10° SW 19:04:19 87° SE 19:09:48 10° NE
Abrixas rocket 1.9 19:06:38 10° W 19:09:36 85° N 19:11:30 20° E
Cosmos 1943 Rocket 4.2 19:06:50 10° NW 19:11:26 27° WSW 19:16:02 10° SSW
STARLINK-1202 4.5 19:07:54 10° WNW 19:11:54 43° N 19:15:18 13° E
NOSS 3-4 (A) 3.9 19:06:34 10° NW 19:13:33 89° ENE 19:20:33 13° SE
NOSS 3-4 (C) 3.9 19:06:40 10° NW 19:13:40 89° NE 19:20:38 13° SE
Cosmos 1610 Rocket 4.4 19:09:18 10° N 19:15:31 78° E 19:21:39 10° SSE
Cosmos 1300 3.7 19:17:23 20° SE 19:18:54 26° E 19:22:08 10° NNE
FALCON 9 DEB 4.0 19:15:52 10° SSW 19:18:57 29° SE 19:20:16 22° E
SL-4 R/B 1.4 19:16:15 10° WSW 19:19:39 89° SSE 19:22:39 13° ENE
Cosmos 2369 Rocket 4.0 19:16:12 10° NW 19:21:06 31° WSW 19:25:57 10° SSW
STARLINK-1246 4.4 19:17:54 10° WNW 19:21:55 45° NNE 19:24:53 17° E
STARLINK-1203 4.4 19:18:32 10° WNW 19:22:37 47° NNE 19:25:34 17° E
MOS 1 Rocket 3.9 19:17:29 10° NNE 19:22:43 48° E 19:27:58 10° S
Cosmos 1340 Rocket 2.9 19:19:29 10° S 19:23:27 56° E 19:27:24 10° NNE
STARLINK-1201 3.4 19:20:33 10° WNW 19:23:46 54° NNE 19:25:27 25° E
CZ-2C R/B 3.7 19:20:26 10° NNE 19:25:09 70° ESE 19:29:45 10° S
Cosmos 1703 3.7 19:21:42 10° NNW 19:25:37 64° W 19:29:32 10° S
H-2A R/B 3.0 19:21:09 10° S 19:26:11 49° W 19:31:07 10° NNW
Cosmos 1328 4.2 19:22:17 10° NNW 19:26:17 66° W 19:30:14 10° S
STARLINK-67 2.3 19:23:50 10° WNW 19:26:25 74° SSW 19:27:10 40° SE
STARLINK-1224 4.3 19:22:53 10° WNW 19:26:54 46° NNE 19:29:39 18° E
CZ-2C R/B 3.8 19:24:14 10° S 19:28:56 49° W 19:33:34 10° NNW
Cosmos 1295 Rocket 4.5 19:24:43 10° N 19:31:03 76° E 19:37:23 10° SSE
STARLINK-1225 4.3 19:27:53 10° WNW 19:31:55 48° NNE 19:34:27 21° E
STARLINK-1230 4.2 19:32:52 10° WNW 19:36:55 49° NNE 19:39:14 23° E
SL-08 RB Rocket 4.3 19:32:26 10° S 19:36:56 58° W 19:41:30 10° NNW
Cosmos 1908 3.7 19:33:18 10° SSW 19:37:08 63° W 19:41:01 10° N
STARLINK-52 3.4 19:34:28 10° SSW 19:37:28 37° SE 19:37:29 37° SE
Resurs 1-3 3.6 19:37:16 15° SSE 19:40:56 84° WSW 19:45:21 10° NNW
STARLINK-1243 4.2 19:37:51 10° WNW 19:41:55 51° NNE 19:44:00 25° E
USA 234 3.7 19:36:09 10° ENE 19:42:05 36° SE 19:47:59 10° SSW
Iridium 4 Rocket 4.0 19:41:03 10° NNE 19:44:39 27° ENE 19:44:57 26° E
ATLAS 2AS CENTAUR R/B 3.2 19:38:21 10° NW 19:45:47 61° WSW 19:51:22 16° SSE
STARLINK-1228 2.6 19:43:47 10° WNW 19:46:43 78° SSW 19:47:06 63° SE
STARLINK-1236 4.1 19:42:49 10° WNW 19:46:54 53° NNE 19:48:47 28° E
CZ-4C R/B 4.1 19:45:31 10° NW 19:51:12 29° NNE 19:56:48 13° ENE
Cosmos 1140 Rocket 3.4 19:46:53 10° SSW 19:52:05 87° ESE 19:57:17 10° NNE
Cosmos 2341 Rocket 4.0 19:48:35 10° N 19:55:01 83° E 19:59:56 18° S
STARLINK-1269 4.0 19:52:47 10° WNW 19:56:53 57° NNE 19:58:20 36° E
Cosmos 1190 Rocket 4.2 19:53:14 10° SSW 19:58:33 75° WNW 20:03:52 10° NNE
Spot 2 Rocket 3.6 19:56:54 33° SE 19:58:58 57° ENE 20:03:59 10° N
Cosmos 2058 Rocket 3.6 19:54:35 10° SSW 19:59:03 63° WNW 20:03:33 10° N
Landsat 7 4.3 19:58:57 35° ESE 20:00:10 43° ENE 20:04:40 10° N
DMSP B5D2-2 4.2 19:55:12 10° NNE 20:00:27 79° WNW 20:05:41 10° SSW
CZ-2C R/B 2.5 19:55:55 10° NNE 20:01:07 89° NW 20:06:20 10° SSW
STARLINK-1200 3.9 19:57:45 10° WNW 20:01:53 60° NNE 20:03:07 40° E
COSMOS 2455 2.9 19:55:54 10° NW 20:01:57 78° WSW 20:05:11 29° SSE
Cosmos 1697 Rocket 4.1 19:57:20 10° N 20:02:02 26° NE 20:04:03 21° ENE
Cosmos 1408 4.4 20:00:19 10° NNE 20:02:18 19° NE 20:02:18 19° NE
STARLINK-1192 3.8 20:02:45 10° WNW 20:06:53 63° NNE 20:07:55 45° E
IGS 5A 3.8 20:06:53 42° E 20:07:14 44° ENE 20:11:12 10° N
Iridium 2 3.6 20:07:49 61° ESE 20:08:03 63° E 20:11:50 10° N
Cosmos 2218 Rocket 4.0 20:03:10 10° N 20:09:22 68° E 20:12:18 33° SSE
Resurs 01 Rocket 2.0 20:08:30 25° S 20:10:57 59° W 20:15:19 10° NNW
STARLINK-1244 3.8 20:07:43 10° WNW 20:11:52 66° NNE 20:12:41 51° ENE
ERBS 2.8 20:09:03 10° NW 20:12:21 48° NNE 20:12:23 48° NNE
BREEZE-M DEB (TANK) 2.3 20:12:21 10° W 20:15:10 48° NW 20:15:10 48° NW
ATLAS CENTAUR R/B 3.2 20:13:21 10° NNW 20:16:06 18° NNE 20:16:45 17° NE
STARLINK-1138 3.7 20:12:42 10° WNW 20:16:51 69° NNE 20:17:28 58° ENE
Cosmos 468 Rocket 4.1 20:11:43 10° NNW 20:16:51 59° ENE 20:18:01 47° ESE
Cosmos 921 Rocket 4.1 20:15:58 10° NW 20:19:52 39° WSW 20:21:45 25° SSW
STARLINK-1234 4.1 20:17:34 10° WNW 20:19:47 35° WSW 20:19:47 35° WSW
STARLINK-1233 3.8 20:17:29 10° WNW 20:19:56 46° W 20:19:56 46° W
STARLINK-1212 3.8 20:17:57 10° WNW 20:20:22 44° W 20:20:22 44° W
STARLINK-1105 3.8 20:18:23 10° WNW 20:20:48 44° W 20:20:48 44° W
STARLINK-1209 4.3 20:18:43 10° WNW 20:20:51 33° WSW 20:20:51 33° WSW
Meteor 2-12 Rocket 4.4 20:15:35 10° N 20:21:39 63° ENE 20:23:33 43° SE
STARLINK-1143 3.6 20:17:40 10° WNW 20:21:50 73° NNE 20:22:14 66° ENE
STARLINK-1206 3.9 20:18:53 10° WNW 20:21:13 42° W 20:21:13 42° W
STARLINK-1247 3.9 20:19:19 10° WNW 20:21:39 42° W 20:21:39 42° W
STARLINK-1227 3.9 20:19:44 10° WNW 20:22:06 42° W 20:22:06 42° W
STARLINK-1218 4.0 20:20:14 10° WNW 20:22:31 41° W 20:22:31 41° W
STARLINK-1226 4.0 20:20:40 10° WNW 20:22:58 40° W 20:22:58 40° W
USA 245 4.3 20:21:27 38° SSE 20:23:50 85° ENE 20:30:17 10° NNW
STARLINK-1254 4.0 20:21:06 10° WNW 20:23:24 40° W 20:23:24 40° W
STARLINK-1215 4.1 20:21:36 10° WNW 20:23:49 39° W 20:23:49 39° W
STARLINK-1231 4.1 20:22:01 10° WNW 20:24:15 38° W 20:24:15 38° W
Cosmos 2181 Rocket 3.9 20:20:34 17° S 20:25:35 90° W 20:31:49 10° N
SL-8 Rocket 4.0 20:19:25 10° N 20:25:46 80° W 20:29:12 29° S
STARLINK-1232 4.2 20:22:57 10° WNW 20:25:08 37° W 20:25:08 37° W
STARLINK-1217 4.2 20:23:23 10° WNW 20:25:33 37° W 20:25:33 37° W
STARLINK-1241 3.5 20:22:41 10° WNW 20:26:51 77° NNE 20:27:04 74° ENE
STARLINK-1208 4.2 20:23:48 10° WNW 20:26:00 37° W 20:26:00 37° W
Cosmos 676 Rocket 4.2 20:22:03 10° SSW 20:27:19 70° WNW 20:32:36 10° NNE
STARLINK-1229 4.2 20:24:17 10° WNW 20:26:25 36° W 20:26:25 36° W
STARLINK-1271 4.3 20:24:44 10° WNW 20:26:52 35° W 20:26:52 35° W
ERS-1 Rocket 3.1 20:27:20 50° E 20:27:57 53° ENE 20:32:50 10° N
Cosmos 1455 4.2 20:30:11 19° NE 20:30:11 19° NE 20:31:34 10° NNE
STARLINK-1270 4.3 20:25:12 10° WNW 20:27:17 35° W 20:27:17 35° W
Cosmos 864 Rocket 4.4 20:22:04 10° N 20:28:20 84° E 20:30:45 40° SSE
STARLINK-1154 4.3 20:25:39 10° WNW 20:27:43 34° W 20:27:43 34° W
STARLINK-1197 4.4 20:26:34 10° WNW 20:28:36 33° W 20:28:36 33° W
Cosmos 1656 3.9 20:24:09 10° NNW 20:29:47 58° ENE 20:30:57 48° ESE
STARLINK-1189 4.4 20:27:01 10° WNW 20:29:01 33° W 20:29:01 33° W
Cosmos 1812 Rocket 3.4 20:29:45 73° SSE 20:30:08 83° E 20:34:29 10° N
STARLINK-1198 4.4 20:27:27 10° WNW 20:29:27 32° W 20:29:27 32° W
STARLINK-1188 4.5 20:27:55 10° WNW 20:29:53 32° W 20:29:53 32° W
Cosmos 1980 Rocket 3.6 20:26:42 10° N 20:31:14 24° NE 20:32:34 22° ENE
STARLINK-1239 3.5 20:27:37 10° WNW 20:31:48 82° NNE 20:31:48 82° NNE
Cosmos 1892 2.8 20:28:31 10° N 20:32:00 67° NNE 20:32:00 67° NNE
SPOT 5 3.1 20:34:13 44° NE 20:34:13 44° NE 20:38:01 10° N
STARLINK-60 4.2 20:32:08 10° W 20:34:55 42° NW 20:34:55 42° NW
STARLINK-1240 3.6 20:32:37 10° WNW 20:36:36 81° NW 20:36:36 81° NW
Cosmos 220 Rocket 4.1 20:33:35 10° NNW 20:37:54 66° WSW 20:38:14 63° SW
Cosmos 2366 rocket 4.0 20:32:29 10° N 20:38:39 80° W 20:41:05 39° S
STARLINK-1216 3.7 20:37:37 10° WNW 20:41:24 73° WNW 20:41:24 73° WNW
Terra 2.4 20:42:27 43° ENE 20:42:27 43° ENE 20:46:42 10° N
Cosmos 1825 3.7 20:38:54 10° N 20:41:04 27° NNE 20:41:04 27° NNE
ATLAS 5 CENTAUR R/B 2.9 20:39:44 10° WSW 20:43:47 41° NW 20:48:24 10° NNE
STARLINK-1237 3.9 20:42:34 10° WNW 20:46:09 65° WNW 20:46:09 65° WNW
Nadezhda 3 Rocket 4.2 20:50:21 50° E 20:50:33 50° E 20:56:35 10° NNE
Cosmos 2058 3.4 20:46:44 10° NNW 20:50:44 53° W 20:50:47 53° W
Cosmos 2151 3.6 20:46:36 10° N 20:49:51 48° NNE 20:49:51 48° NNE
STARLINK-1202 4.1 20:47:34 10° WNW 20:50:57 57° WNW 20:50:57 57° WNW
SPOT 1/Viking Rocket 3.6 20:52:37 63° SSW 20:53:24 76° WSW 20:58:39 10° NNW
RESURS DK-1 3.1 20:49:59 10° NNW 20:53:17 47° NNE 20:53:17 47° NNE
Cosmos 1741 Rocket 3.9 20:54:59 79° SE 20:55:10 81° ESE 21:00:33 10° NNE
Cosmos 2278 4.3 20:53:15 10° NNW 20:58:37 41° NE 20:58:59 41° ENE
Cosmos 1076 Rocket 4.3 20:54:42 10° NNW 20:58:46 44° W 20:59:02 43° WSW
SL-4 R/B 3.4 20:56:08 10° WNW 20:58:17 31° NW 20:58:17 31° NW
Cosmos 2082 Rocket 4.1 21:03:59 16° ENE 21:03:59 16° ENE 21:05:24 10° NE
Cosmos 2208 Rocket 4.0 20:55:44 10° NNW 21:00:47 67° NE 21:00:47 67° NE
Cosmos 1763 Rocket 3.7 21:05:18 10° NNW 21:10:26 61° WSW 21:10:29 61° WSW
Cosmos 1833 Rocket 3.7 21:13:44 32° NE 21:13:44 32° NE 21:16:57 10° NE
Cosmos 489 Rocket 4.3 21:07:50 10° NNW 21:14:05 82° WSW 21:14:41 73° S
Cosmos 2239 Rocket 4.4 21:09:39 10° N 21:15:56 74° E 21:16:11 73° ESE
BREEZE M DEB (TANK) 3.7 21:13:19 10° WSW 21:17:36 88° SSE 21:32:57 10° ENE
Cosmos 1814 Rocket 4.1 21:14:29 10° NNW 21:19:27 74° N 21:19:27 74° N
Cosmos 540 Rocket 3.6 21:14:44 10° NNW 21:19:20 69° N 21:19:20 69° N
Cosmos-2242 4.1 21:21:21 43° N 21:21:21 43° N 21:24:24 10° N
Cosmos 1821 Rocket 3.9 21:13:38 10° N 21:20:03 88° E 21:20:35 77° SSE
COSMOS 2406 3.1 21:20:59 85° NNW 21:20:59 85° NNW 21:26:37 10° NNE
Meteor 2-10 Rocket 3.6 21:23:20 75° NW 21:23:20 75° NW 21:28:28 10° N
Cosmos 1934 Rocket 4.1 21:18:37 10° N 21:24:38 61° ENE 21:24:38 61° ENE
USA 234 3.2 21:18:56 10° NE 21:25:30 82° NNW 21:32:03 10° WSW
Cosmos 1605 Rocket 4.4 21:33:13 10° N 21:38:36 51° NE 21:38:36 51° NE
Cosmos 2369 3.9 21:35:05 10° NNW 21:40:06 68° WNW 21:40:06 68° WNW
CZ-4C R/B 2.9 21:33:53 10° NW 21:40:56 71° NE 21:42:00 63° E
ASTEX 1 4.1 21:44:36 50° N 21:44:36 50° N 21:48:16 10° N
Cosmos 1697 Rocket 3.0 21:40:52 10° NNW 21:45:47 61° WNW 21:45:47 61° WNW
Cosmos 841 Rocket 4.3 21:42:37 10° NNW 21:46:53 48° WNW 21:46:53 48° WNW
Mayak 0.9 21:46:14 10° NNE 21:47:46 22° NNE 21:47:46 22° NNE
ATLAS CENTAUR R/B 3.7 21:51:40 10° NW 21:52:56 20° NW 21:52:56 20° NW
SL-16 R/B 3.4 21:59:32 10° NNW 22:04:14 35° NE 22:04:14 35° NE
Cosmos 2360 Rocket 4.0 22:03:43 10° N 22:07:54 21° NE 22:08:31 20° NE
Meteor 2-3 Rocket 4.4 22:06:19 10° NNW 22:11:01 51° WNW 22:11:01 51° WNW
Cosmos 2322 Rocket 3.4 22:08:00 10° NNW 22:12:34 34° NE 22:12:34 34° NE
Cosmos 1980 Rocket 2.9 22:10:11 10° NNW 22:14:19 49° NW 22:14:19 49° NW
Terra 3.8 22:21:20 22° WNW 22:21:20 22° WNW 22:24:03 10° NW
Cosmos 2082 Rocket 3.1 22:45:48 44° NNW 22:45:48 44° NNW 22:50:04 10° NNE
Cosmos 1833 Rocket 4.1 22:55:22 32° NW 22:55:40 32° NW 23:00:43 10° NNE
Cosmos 2344 4.4 22:47:18 10° NW 22:56:56 70° WSW 22:58:33 64° SSW
Cosmos 1727 Rocket 4.5 22:58:39 57° NNW 22:58:39 57° NNW 23:03:42 10° N
Cosmos 2219 Rocket 4.1 23:02:11 10° N 23:06:23 21° NE 23:07:19 20° NE
USA 234 4.2 23:02:00 10° ENE 23:08:08 45° NNW 23:14:15 10° W
Mayak 1.8 23:23:52 10° NW 23:24:21 11° NW 23:24:21 11° NW
COSMOS 2428 4.4 23:22:46 10° N 23:27:34 27° NE 23:28:04 26° NE
CZ-4C R/B 4.1 23:22:47 10° NW 23:27:10 30° W 23:27:10 30° W
MOS 1-B Rocket 4.5 23:41:14 10° N 23:46:30 62° NNW 23:46:30 62° NNW
SL-16 R/B 3.9 23:43:36 10° NW 23:46:05 25° NW 23:46:05 25° NW
Cosmos 2360 Rocket 3.4 23:47:01 10° NNW 23:50:15 36° NNW 23:50:15 36° NNW
